Regional Weather Roundup
Issued by NWS

Home | Current Version | Previous Version | Text Only | Print | Product List | Glossary On
Versions: 1 2 3 4 5 6 7 8 9 10 11 12 13 14 15 16 17 18 19 20 21 22 23 24 25 26 27 28 29 30 31 32 33 34 35 36 37 38 39 40 41 42 43 44 45 46 47 48 49 50
000
ASUS43 KMKX 210600
RWRWI

WISCONSIN REGIONAL WEATHER ROUNDUP
NATIONAL WEATHER SERVICE MILWAUKEE/SULLIVAN WI
100 AM CDT THU AUG 21 2014

NOTE: "FAIR" INDICATES FEW OR NO CLOUDS BELOW 12,000 FEET WITH NO
SIGNIFICANT WEATHER AND/OR OBSTRUCTIONS TO VISIBILITY.

WIZ001-002-006>008-014>016-023>028-210700-
NORTHWEST WISCONSIN

CITY           SKY/WX    TMP DP  RH WIND       PRES   REMARKS
SUPERIOR ARPT  CLOUDY    62  61  99 N3        29.94S
ASHLAND        CLOUDY    59  58  96 CALM      29.95F
6HR MIN TEMP:  59; 6HR MAX TEMP:  67;

HAYWARD        FAIR      55  55 100 CALM      29.95S
6HR MIN TEMP:  55; 6HR MAX TEMP:  66;

SIREN          FAIR      64  62  93 CALM      29.92S
RICE LAKE      FAIR      63  60  89 CALM      29.95R
6HR MIN TEMP:  63; 6HR MAX TEMP:  73; 6HR PCP:  0.01;

LADYSMITH      FAIR      62  60  94 E5        29.97S
EAU CLAIRE     NOT AVBL
MENOMONIE      CLOUDY    67  63  86 E5        29.92R
6HR MIN TEMP:  67; 6HR MAX TEMP:  76;

NEW RICHMOND   FAIR      67  62  84 E5        29.91R
OSCEOLA        FAIR      67  65  93 E5        29.93R
$$

WIZ003>005-009-010-017-018-210700-
NORTH CENTRAL WISCONSIN

CITY           SKY/WX    TMP DP  RH WIND       PRES   REMARKS
WOODRUFF       CLOUDY    63  59  87 CALM      29.98S
RHINELANDER    MOCLDY    61  59  93 E5        29.98F
6HR MIN TEMP:  60; 6HR MAX TEMP:  67;

EAGLE RIVER    CLOUDY    62  61  96 CALM      29.98S
LAND O LAKES   CLOUDY    61  61  98 CALM      30.00R
PHILLIPS       MOCLDY    55  55 100 CALM      29.97S FOG
6HR MIN TEMP:  55; 6HR MAX TEMP:  67;

TOMAHAWK         N/A     53  52  97 CALM      29.98S FOG
MEDFORD        FAIR      59  59  99 E3        29.96S
MERRILL        FOG       56  56 100 CALM      29.97S VSB 1/2
$$

WIZ029-030-035-036-043>047-210700-
CENTRAL WISCONSIN

CITY           SKY/WX    TMP DP  RH WIND       PRES   REMARKS
WAUSAU         FAIR      60  59  96 CALM      29.95S
6HR MIN TEMP:  60; 6HR MAX TEMP:  73; 6HR PCP: TRACE;

MOSINEE        MOCLDY    59  59 100 E3        29.97S
MARSHFIELD     FAIR      63  60  90 E5        29.95S
6HR MIN TEMP:  63; 6HR MAX TEMP:  74;

STEVENS POINT  FAIR      58  57  97 CALM      29.97R
WAUPACA        FAIR      64  62  94 CALM      29.96S
WAUTOMA        NOT AVBL
WISC RAPIDS    MOCLDY    64  62  93 E5        29.97R
6HR MIN TEMP:  64; 6HR MAX TEMP:  75;

CAMP DOUGLAS   NOT AVBL
$$

WIZ011>013-019>022-031-037>040-048>050-210700-
NORTHEAST WISCONSIN

CITY           SKY/WX    TMP DP  RH WIND       PRES   REMARKS
ANTIGO         FAIR      58  57  99 CALM      29.98S
STURGEON BAY   CLOUDY    64  61  88 S3        29.97S
6HR MIN TEMP:  63; 6HR MAX TEMP:  70;

GREEN BAY      FAIR      61  60  97 S5        29.97R FOG
6HR MIN TEMP:  61; 6HR MAX TEMP:  74;

MANITOWOC      NOT AVBL
APPLETON       FAIR      63  61  94 CALM      29.97R
CLINTONVILLE   FAIR      59  59 100 CALM      29.96R
OSHKOSH        MOCLDY    64  63  96 S5        29.96S
6HR MIN TEMP:  64; 6HR MAX TEMP:  74;

$$

WIZ032>034-041-042-053>061-210700-
SOUTHWEST WISCONSIN

CITY           SKY/WX    TMP DP  RH WIND       PRES   REMARKS
LA CROSSE      FAIR      73  66  78 E8        29.90S
6HR MIN TEMP:  73; 6HR MAX TEMP:  82;

SPARTA         FAIR      68  63  82 SE3       29.93S
VIROQUA        FAIR      68  68 100 E5        29.93F
BOSCOBEL       MOCLDY    70  67  90 CALM      29.92R
6HR MIN TEMP:  67; 6HR MAX TEMP:  82;

PRAIRIE DU CHI FAIR      68  66  92 E3        29.91R
PLATTEVILLE    FAIR      68  66  94 SE5       29.95S
$$

WIZ056-057-062-063-064-067-068-210700-
SOUTH CENTRAL WISCONSIN

CITY           SKY/WX    TMP DP  RH WIND       PRES   REMARKS
BARABOO/DELLS  FAIR      67  63  86 E6        29.94F
LONE ROCK      NOT AVBL
WATERTOWN      FAIR      66  65  95 E5        29.95S
MADISON        FAIR      69  66  90 E6        29.94S
6HR MIN TEMP:  69; 6HR MAX TEMP:  79;

MIDDLETON      FAIR      69  68  98 CALM      29.95R
MONROE         FAIR      68  64  88 S5        29.95S
JANESVILLE     FAIR      70  66  88 S5        29.95R
$$

WIZ051-052-058>065-066-070>072-210700-
SOUTHEAST WISCONSIN

CITY           SKY/WX    TMP DP  RH WIND       PRES   REMARKS
MILWAUKEE      FAIR      68  63  84 E6        29.97R
6HR MIN TEMP:  67; 6HR MAX TEMP:  71;

WAUKESHA       CLOUDY    64  63  94 E5        29.98S
MILWAUKEE/TIMM FAIR      68  61  77 CALM      29.98S
RACINE         FAIR      69  64  84 E6        29.98S
6HR MIN TEMP:  69; 6HR MAX TEMP:  71;

BURLINGTON     FAIR      65  64  96 CALM      29.97S
KENOSHA        FAIR      67  65  93 NE6       29.97R
6HR MIN TEMP:  67; 6HR MAX TEMP:  74;

FOND DU LAC    MOCLDY    65  61  87 SE7       29.97S
6HR MIN TEMP:  65; 6HR MAX TEMP:  74;

SHEBOYGAN      FAIR      61  60  97 CALM      29.98S FOG
6HR MIN TEMP:  60; 6HR MAX TEMP:  70;

WEST BEND      MOCLDY    63  59  88 CALM      29.98R FOG
JUNEAU         FAIR      65  39  37 E6        29.97S
$$

LSZ147-162-210700-
LAKE SUPERIOR

STATION/POSITION TIME  TEMP    WIND        PRES    WAVE
                       AIR SEA DIR/SP/G            HT/PER
                 (UTC) (F)     (DEG/KT/KT) (MB)    (FT/S)
W MID LAKE BUOY  0450   59 59   70/  4/  4 1014.5F   0
DEVILS ISLAND    0500   61      90/  7/  8 1014.5R
PORT WING        0500   63     120/  1/  2 1013.9
SAXON HARBOR     0500   59        CALM     1014.2
$$

LMZ867-665-643>646-210700-
LAKE MICHIGAN

STATION/POSITION TIME  TEMP    WIND        PRES    WAVE
                       AIR SEA DIR/SP/G            HT/PER
                 (UTC) (F)     (DEG/KT/KT) (MB)    (FT/S)
N MID LAKE BUOY  0450   62 62  240/  4/  6 1013.8R   0
NORTHPORT PIER   0500   64     210/  3/  5 1014.6R
SISTER BAY       0511   64     170/  7/  9   N/A
ALGOMA LAKESHORE 0353             CALM       N/A
KEWAUNEE LAKESHO 0500   65     170/  4/  5 1013.8R
SHEBOYGAN LAKESH 0500   66 65  120/  3/  3 1015.0R
ATWATER BUOY     0500   69     130/  4/  6 1015.9R
MILWAUKEE LAKESH 0500   69     140/  4/  4   N/A
S MID LAKE BUOY  0450   68 68   70/  8/  8 1014.4R   0
KENOSHA   LAKESH 0500   70      70/  3/  5 1014.2R
$$

TC  - TEMPERATURE IN CELSIUS
VSB - VISIBILITY IN STATUTE MILES
WCI - WIND CHILL INDEX
HX  - HEAT INDEX



USA.gov is the U.S. government's official web portal to all federal, state and local government web resources and services.